Tracking 30107 objects as of 18-Jan-2025
HD Live streaming from Space Station
objects crossing your sky now

CZ-3B DEB

Track CZ-3B DEB now!


NORAD ID: 40169
Int'l Code: 2010-042W
Perigee: 1,263.9 km
Apogee: 40,311.1 km
Inclination: 27.2 °
Period: 742.4 minutes
Semi major axis: 27158 km
RCS: Unknown
Launch date: September 4, 2010
Source: People's Republic of China (PRC)
Launch site: Xichang Space Center, China (XSC)

Note: This is SATELLITE DEBRIS
Your satellite tracking list
Your tracking list is empty




NASA's NSSDC Master Catalog

Two Line Element Set (TLE):
1 40169U 10042W   25017.30265167 -.00000054  00000-0  00000-0 0  9992
2 40169  27.1908   1.7743 7188768 188.3369 351.4261  1.93974198 87787
Source of the keplerian elements: AFSPC